[[{"header":{"parameterUnit":"m.s-1","parameterCategory":1,"la1":30.2991,"la2":30.254,"lo1":-89.0895,"lo2":-89.0444,"dy":0.0017,"dx":0.0017,"nx":28,"ny":28,"refTime":"2023-09-08T21:00:00:Z","depth":0,"parameterNumber":2,"parameterNumberName":"U-component_of_WINDS"},"data":[0,0,0,0,0,0,0,0,0,0,0,0,0,0,0,0,0,0,0,0,0,0,0,0,0,0,0,0,0,0,0,0,0,0,0,0,0,0,0,0,0,0,0,0,0,0,0,0,0,0,0,0,0,0,0,0,0,0,0.4311,0.4312,0,0.444,0.4441,0.4443,0.4439,0.4437,0.4435,0.4434,0.4572,0.4577,0.4582,0,0,0,0,0,0,0,0,0,0,0,0,0,0.4064,0.4069,0.431,0.4312,0.4314,0.444,0.4441,0.4443,0.4439,0.4437,0.4435,0.4433,0.457,0.4576,0.4583,0,0,0,0,0,0,0,0,0,0,0,0,0,0.418,0.407,0.431,0.4327,0.433,0.4439,0.4441,0.4444,0.444,0.4437,0.4434,0.4432,0.4568,0.4576,0.4584,0.4687,0,0,0.4608,0.4612,0,0,0,0,0,0,0,0,0.4174,0.4189,0.4323,0.4326,0.4329,0.442,0.4405,0.4526,0.444,0.4398,0.4434,0.443,0.4524,0.4536,0.4566,0.4694,0.47,0.4609,0.4614,0.4617,0.462,0,0,0,0,0,0,0,0.4166,0.4184,0.4362,0.4325,0.4329,0.4329,0.4343,0.4428,0.4475,0.4402,0.4402,0.4417,0.4525,0.4558,0.4569,0.4702,0.4609,0.4616,0.4621,0.4624,0.492,0.4923,0,0,0,0,0,0,0.4154,0.4177,0.4358,0.4366,0.4243,0.4336,0.4351,0.4394,0.4474,0.4483,0.4419,0.4416,0.4546,0.456,0.4574,0.4699,0.4617,0.4625,0.4629,0.4917,0.492,0.4924,0,0,0,0,0,0,0.4148,0.417,0.4353,0.4272,0.4295,0.4343,0.4391,0.4398,0.4431,0.4487,0.4496,0.4443,0.4544,0.4563,0.4658,0.4704,0.4628,0.4636,0.4913,0.4918,0.4922,0.4952,0,0,0,0,0,0,0.4141,0.4168,0.4207,0.4272,0.4299,0.4434,0.4394,0.4402,0.4444,0.4441,0.4512,0.4521,0.4544,0.4646,0.4666,0.4714,0.4642,0.4909,0.4915,0.4921,0.4947,0.4957,0.4965,0,0,0,0,0,0.4132,0.4212,0.4209,0.4231,0.4348,0.4436,0.4452,0.4474,0.4447,0.4488,0.4523,0.4519,0.4696,0.4656,0.4679,0.4729,0.4907,0.4914,0.492,0.4943,0.4955,0.4965,0,0,0,0,0,0,0.4153,0.4221,0.4218,0.432,0.4372,0.4435,0.4487,0.4486,0.4548,0.4543,0.457,0.4586,0.4682,0.4715,0.467,0.4833,0.4798,0.481,0.4808,0.4819,0.4828,0.4818,0.4649,0,0,0,0,0,0.4168,0.4232,0.4289,0.4374,0.44,0.4439,0.4478,0.449,0.4546,0.4568,0.4611,0.4667,0.4734,0.4779,0.4845,0.4952,0.4967,0.4997,0.5006,0.5014,0.5024,0.5082,0.5096,0.4946,0.4946,0.4946,0,0,0.4203,0.4248,0.4287,0.4379,0.4421,0.4487,0.4457,0.453,0.458,0.458,0.4672,0.4705,0.4769,0.487,0.4917,0.4902,0.5068,0.5022,0.5028,0.5034,0.509,0.5104,0.5117,0.4951,0.495,0.4949,0,0,0.4299,0.434,0.4414,0.4456,0.4518,0.4543,0.4561,0.4624,0.4645,0.4738,0.4739,0.4799,0.4916,0.4961,0.4999,0.511,0.5109,0.5131,0.5179,0.5235,0.5247,0.5258,0.5297,0.5311,0.5141,0.5141,0.5141,0,0.4335,0.4434,0.4453,0.4525,0.4565,0.4566,0.4642,0.4682,0.4764,0.4792,0.4773,0.4917,0.4961,0.5072,0.5099,0.513,0.5151,0.5124,0.5243,0.5254,0.5265,0.5302,0.5317,0.5143,0.5143,0.5143,0.5143,0,0.4474,0.4542,0.4595,0.4671,0.4718,0.4791,0.4823,0.4868,0.4876,0.4903,0.4997,0.5048,0.5123,0.5151,0.5161,0.5263,0.5251,0.5237,0.5203,0.5281,0.5316,0.5331,0.5147,0.5146,0.5145,0.5144,0,0,0.4588,0.4672,0.4691,0.4724,0.4793,0.4847,0.4921,0.4992,0.503,0.5086,0.5148,0.5246,0.5233,0.5276,0.5291,0.534,0.5424,0.532,0.5322,0.5337,0.5539,0.5549,0.5565,0.5423,0.5425,0.5428,0.5534,0,0.4691,0.4819,0.4838,0.4952,0.5016,0.5017,0.5081,0.513,0.5157,0.5216,0.5247,0.5315,0.5293,0.5319,0.5368,0.5403,0.5465,0.5396,0.5482,0.5485,0.5465,0.5584,0.5595,0.5692,0.5548,0.555,0.5552,0,0.4829,0.4885,0.5005,0.5063,0.509,0.5147,0.5213,0.5269,0.5325,0.5342,0.5388,0.5397,0.5474,0.5435,0.5542,0.5495,0.5531,0.5554,0.5558,0.5567,0.5523,0.5596,0.5724,0.5738,0.5574,0.5572,0.5571,0,0.4899,0.5005,0.509,0.5119,0.5189,0.5229,0.526,0.5313,0.5354,0.5413,0.544,0.5508,0.5545,0.5597,0.5623,0.5593,0.5728,0.5692,0.5744,0.5743,0.5773,0.5771,0.5908,0.5797,0.5797,0.5796,0.5796,0,0.5012,0.5085,0.5122,0.5174,0.5256,0.5278,0.5358,0.5389,0.5436,0.5494,0.55,0.5556,0.5587,0.5647,0.5668,0.5753,0.577,0.5786,0.579,0.5785,0.5783,0.5809,0.5803,0.58,0.5799,0.5799,0.5798,0,0.5104,0.5132,0.5224,0.5282,0.5298,0.5356,0.5406,0.5457,0.5483,0.5557,0.5576,0.5618,0.5688,0.5719,0.5808,0.5822,0.5918,0.5919,0.5899,0.59,0.595,0.5945,0.611,0.6132,0.6006,0.6007,0.6008,0,0.5174,0.5229,0.5292,0.5331,0.5362,0.5425,0.5466,0.549,0.5533,0.5599,0.5642,0.5713,0.577,0.5884,0.5923,0.599,0.5992,0.6045,0.6002,0.5994,0.5992,0.5988,0.5993,0.6053,0.6054,0.6055,0.6056,0,0.5295,0.5305,0.5363,0.5426,0.5475,0.5526,0.5576,0.5608,0.5639,0.5687,0.5758,0.5803,0.5891,0.5961,0.603,0.6064,0.6065,0.6068,0.6084,0.6079,0.6065,0.6072,0.5919,0.6065,0.6064,0.6063,0.6063,0.6062,0.5378,0.5426,0.5477,0.5542,0.5581,0.5628,0.5678,0.5709,0.5768,0.5841,0.5851,0.5927,0.5981,0.6074,0.611,0.617,0.6157,0.618,0.6186,0.6191,0.6193,0.6055,0.6183,0.6183,0.6183,0.6182,0.6182,0,0.5498,0.553,0.5589,0.5658,0.5708,0.5703,0.5758,0.5801,0.5867,0.5916,0.5971,0.6053,0.612,0.6164,0.6232,0.6272,0.6274,0.6289,0.6286,0.6294,0.6201,0.618,0.6286,0.6286,0.6286,0.6286,0.6286,0.6286,0.5566,0.5648,0.5665,0.5766,0.5799,0.5871,0.5903,0.5946,0.5985,0.6075,0.613,0.6157,0.6204,0.6275,0.6337,0.6348,0.6372,0.6388,0.6398,0.6311,0.63,0.629,0.6271,0.6393,0.6393,0.6485,0.6486,0.6487]},{"header":{"parameterUnit":"m.s-1","parameterCategory":1,"la1":30.2991,"la2":30.254,"lo1":-89.0895,"lo2":-89.0444,"dy":0.0017,"dx":0.0017,"nx":28,"ny":28,"refTime":"2023-09-08T21:00:00:Z","depth":0,"parameterNumber":3,"parameterNumberName":"V-component_of_WINDS"},"data":[0,0,0,0,0,0,0,0,0,0,0,0,0,0,0,0,0,0,0,0,0,0,0,0,0,0,0,0,0,0,0,0,0,0,0,0,0,0,0,0,0,0,0,0,0,0,0,0,0,0,0,0,0,0,0,0,0,0,1.717,1.717,0,1.7161,1.7161,1.7161,1.7063,1.706,1.7058,1.7056,1.7048,1.705,1.7052,0,0,0,0,0,0,0,0,0,0,0,0,0,1.7103,1.7105,1.717,1.717,1.717,1.7161,1.7161,1.7161,1.7063,1.706,1.7057,1.7055,1.7047,1.7049,1.7052,0,0,0,0,0,0,0,0,0,0,0,0,0,1.7117,1.7105,1.717,1.712,1.7116,1.7161,1.7161,1.7161,1.7064,1.706,1.7057,1.7053,1.7046,1.7049,1.7052,1.7145,0,0,1.7062,1.7063,0,0,0,0,0,0,0,0,1.7116,1.712,1.7128,1.7124,1.7119,1.7109,1.7134,1.7156,1.7065,1.7084,1.7056,1.7051,1.7071,1.7072,1.7078,1.7145,1.7144,1.7062,1.7064,1.7065,1.7066,0,0,0,0,0,0,0,1.7116,1.7119,1.7167,1.7128,1.7123,1.7098,1.7096,1.7138,1.7098,1.7082,1.7075,1.7075,1.7068,1.7076,1.7078,1.7144,1.7062,1.7065,1.7067,1.7068,1.7281,1.7284,0,0,0,0,0,0,1.7121,1.7119,1.7167,1.7166,1.7108,1.7102,1.71,1.7116,1.7098,1.7091,1.7078,1.707,1.7072,1.7074,1.7077,1.718,1.7065,1.7068,1.707,1.7277,1.7281,1.7286,0,0,0,0,0,0,1.712,1.7127,1.7167,1.7141,1.7144,1.7107,1.7126,1.7118,1.7125,1.7095,1.7087,1.7093,1.7069,1.7073,1.7127,1.7179,1.707,1.7072,1.7272,1.7278,1.7284,1.7391,0,0,0,0,0,0,1.7119,1.7127,1.7162,1.7142,1.7146,1.7219,1.713,1.712,1.7131,1.7121,1.7107,1.7101,1.7067,1.7123,1.7131,1.7181,1.7075,1.7268,1.7275,1.7282,1.7383,1.74,1.7414,0,0,0,0,0,1.7117,1.7195,1.7165,1.7171,1.719,1.7222,1.7224,1.7183,1.7135,1.717,1.7149,1.7101,1.7173,1.713,1.7137,1.719,1.7264,1.7273,1.7281,1.7376,1.7396,1.7414,0,0,0,0,0,0,1.7224,1.7191,1.7158,1.7232,1.723,1.7206,1.7249,1.7207,1.722,1.721,1.7158,1.7156,1.7218,1.7209,1.7163,1.7276,1.721,1.722,1.7279,1.7298,1.7314,1.7314,1.7077,0,0,0,0,0,1.7256,1.7285,1.7255,1.7323,1.7324,1.7286,1.7299,1.7267,1.7264,1.7263,1.7247,1.7246,1.7267,1.7282,1.7301,1.7381,1.7375,1.742,1.7436,1.7449,1.7458,1.7496,1.7514,1.7314,1.7313,1.7313,0,0,1.7323,1.7308,1.733,1.7344,1.7339,1.7369,1.7287,1.7324,1.7345,1.7269,1.7318,1.7306,1.7301,1.7368,1.7397,1.7363,1.7512,1.746,1.7471,1.7473,1.7506,1.7525,1.7542,1.7319,1.7318,1.7317,0,0,1.7459,1.7453,1.7506,1.7502,1.7494,1.7468,1.7481,1.7462,1.745,1.7499,1.7441,1.7466,1.7506,1.7503,1.7507,1.7637,1.7592,1.7645,1.7727,1.7764,1.7779,1.7793,1.7836,1.7853,1.7654,1.7655,1.7655,0,1.7543,1.7586,1.7539,1.7578,1.7584,1.7515,1.7567,1.7566,1.7566,1.7571,1.7533,1.7577,1.757,1.7632,1.7664,1.7671,1.7681,1.7646,1.7781,1.7794,1.7806,1.7847,1.7864,1.7661,1.766,1.766,1.7659,0,1.7688,1.7718,1.7763,1.7761,1.7772,1.7819,1.7777,1.7794,1.776,1.7738,1.7786,1.7774,1.7786,1.7799,1.7768,1.7856,1.7835,1.779,1.7722,1.7832,1.7869,1.7885,1.767,1.7668,1.7666,1.7664,0,0,1.7893,1.7862,1.7879,1.7875,1.786,1.7883,1.7924,1.7935,1.7948,1.795,1.7982,1.8014,1.7971,1.7975,1.7943,1.7975,1.8074,1.7925,1.7924,1.7951,1.8167,1.82,1.8219,1.8045,1.8048,1.805,1.8166,0,1.8022,1.809,1.8046,1.8121,1.8146,1.8079,1.8114,1.8108,1.8088,1.8106,1.8083,1.8105,1.8048,1.805,1.8079,1.8056,1.8117,1.8048,1.8072,1.8073,1.8073,1.8238,1.8274,1.8385,1.8181,1.8184,1.8185,0,1.8181,1.8186,1.8263,1.8238,1.8247,1.828,1.8283,1.8303,1.8293,1.8275,1.8278,1.8236,1.8272,1.8206,1.8255,1.8209,1.8216,1.8206,1.8209,1.8208,1.8135,1.824,1.8419,1.8435,1.8208,1.8207,1.8205,0,1.8319,1.8346,1.8393,1.8393,1.8366,1.839,1.838,1.8367,1.8375,1.8378,1.8382,1.8391,1.8395,1.8402,1.8362,1.8318,1.8414,1.8346,1.8399,1.84,1.8421,1.842,1.8602,1.843,1.843,1.8429,1.8429,0,1.8466,1.8515,1.8454,1.8483,1.8534,1.8484,1.8536,1.8519,1.8507,1.853,1.8474,1.8497,1.8443,1.8461,1.843,1.8472,1.8476,1.8461,1.8452,1.8465,1.8466,1.8468,1.8458,1.8434,1.8433,1.8432,1.8431,0,1.8629,1.859,1.8637,1.8607,1.86,1.8639,1.8612,1.8637,1.8611,1.8642,1.8646,1.8606,1.8623,1.8583,1.8596,1.8574,1.8634,1.8614,1.8637,1.863,1.8684,1.8678,1.8871,1.8893,1.871,1.8711,1.8713,0,1.8724,1.8759,1.8731,1.8742,1.8734,1.8754,1.876,1.871,1.8719,1.8708,1.8734,1.8746,1.8752,1.8782,1.8754,1.8762,1.874,1.8806,1.874,1.8751,1.8737,1.8734,1.8736,1.882,1.8822,1.8824,1.8826,0,1.8896,1.8874,1.8885,1.8888,1.8897,1.8898,1.8895,1.8907,1.8853,1.8866,1.8881,1.8887,1.8896,1.8908,1.8909,1.8897,1.8852,1.8846,1.8858,1.8871,1.8882,1.8873,1.8671,1.8842,1.884,1.8839,1.8838,1.8838,1.9026,1.9052,1.9035,1.9048,1.9039,1.9037,1.9057,1.9032,1.9044,1.9047,1.9017,1.9038,1.9024,1.902,1.9013,1.9027,1.8997,1.9015,1.902,1.9024,1.9032,1.8881,1.9028,1.9027,1.9027,1.9026,1.9026,0,1.9192,1.9177,1.9189,1.9184,1.9194,1.9149,1.9142,1.9152,1.9171,1.9161,1.9168,1.9183,1.9193,1.9164,1.9169,1.9186,1.9165,1.9189,1.9186,1.9183,1.906,1.9048,1.9205,1.9205,1.9205,1.9205,1.9205,1.9205,1.928,1.932,1.9296,1.933,1.9314,1.9333,1.9333,1.9329,1.932,1.9339,1.9346,1.9327,1.9308,1.931,1.9316,1.9307,1.931,1.9341,1.9325,1.921,1.9193,1.9176,1.9164,1.9343,1.9343,1.9446,1.9447,1.9447]}]]